Regional Weather Roundup
Issued by NWS New Orleans/Baton Rouge, LA

Home | Current Version | Previous Version | Graphics & Text | Print | Product List | Glossary On
Versions: 1 2 3 4 5 6 7 8 9 10 11 12 13 14 15 16 17 18 19 20 21 22 23 24 25 26 27 28 29 30 31 32 33 34 35 36 37 38 39 40 41 42 43 44 45 46 47 48 49 50
505
ASUS44 KLIX 160601
RWRLIX
NEW ORLEANS REGIONAL WEATHER ROUNDUP
NATIONAL WEATHER SERVICE NEW ORLEANS LA
100 AM CDT WED APR 16 2014

NOTE: "FAIR" INDICATES FEW OR NO CLOUDS BELOW 12,000 FEET WITH NO
      SIGNIFICANT WEATHER AND/OR OBSTRUCTIONS TO VISIBILITY.
      SKY/WX - SKY CONDITION AND SIGNIFICANT WEATHER.
      TMP - AIR TEMPERATURE.     DP    - DEWPOINT TEMPERATURE.
      RH  - RELATIVE HUMIDITY.   PRES  - PRESSURE.
      HI  - HEAT INDEX.          WCI   - WIND CHILL INDEX.

*  THESE STATIONS ARE NOT NWS OR FAA STATIONS AND ARE NOT UNDER
   NWS QUALITY CONTROL.

LAZ038-040-048-061>063-065>067-069-160700-
SOUTHEAST LOUISIANA

CITY           SKY/WX    TMP DP  RH WIND       PRES   REMARKS
N.O. AUDUBON     N/A     50  32  50 MISG        N/A
N.O. INTL ARPT   N/A     51  35  54 NE22G29   30.17S
6HR MIN TEMP:  50; 6HR MAX TEMP:  58;

N.O. LAKEFRONT   N/A     52  38  58 N25       30.18S
6HR MIN TEMP:  51; 6HR MAX TEMP:  59;

N.O. DOWNTOWN*   N/A     52  30  43 N13       30.18R
6HR MIN TEMP:  52; 6HR MAX TEMP:  61;

SLIDELL          N/A     46  33  60 N9        30.17F
6HR MIN TEMP:  43; 6HR MAX TEMP:  57;

BATON ROUGE      N/A     44  33  65 NE8       30.19F
6HR MIN TEMP:  44; 6HR MAX TEMP:  57;

BOOTHVILLE       N/A     56  36  47 NE13G24   30.15F
6HR MIN TEMP:  55; 6HR MAX TEMP:  58;

BELLE CHASSE     N/A     50  33  52 NE9       30.17R
6HR MIN TEMP:  50; 6HR MAX TEMP:  58;

BOGALUSA*        N/A     39  35  84 N5        30.20F
6HR MIN TEMP:  39; 6HR MAX TEMP:  56;

GALLIANO*      NOT AVBL
NEW ROADS*     NOT AVBL
GONZALES*        N/A     46  33  61 N7        30.18S
6HR MIN TEMP:  46; 6HR MAX TEMP:  56;

HAMMOND*       NOT AVBL
HOUMA*         NOT AVBL
PORT FOURCHON* CLEAR     54  39  58 NE15      30.17S

$$

MSZ070-080>082-160700-
SOUTHERN MISSISSIPPI

CITY           SKY/WX    TMP DP  RH WIND       PRES   REMARKS
MCCOMB           N/A     41  32  70 N6        30.19F
6HR MIN TEMP:  40; 6HR MAX TEMP:  53;

GULFPORT         N/A     47  33  58 N9        30.17F
6HR MIN TEMP:  47; 6HR MAX TEMP:  59;

BILOXI           N/A     45  35  68 N8        30.17F
6HR MIN TEMP:  45; 6HR MAX TEMP:  57;

PASCAGOULA       N/A     45  32  60 N9        30.18S
6HR MIN TEMP:  45; 6HR MAX TEMP:  56;


$$

COASTAL OBSERVATIONS
LAKE AND NEARSHORE STATIONS

STATION/POSITION TIME  TEMP    WIND        PRES    WAVE
                       AIR SEA DIR/SP/G            HT/PER
                 (UTC) (F)     (DEG/KT/KT) (MB)    (FT/S)
PASCAGOULA       0500   47      20/  8/ 13 1021.1
WAVELAND YACHT   0500   49 64   10/ 17/ 20 1020.9
GRAND ISLE       0500   54 64   40/ 14/ 24 1021.5
SOUTHWEST PASS   0500   60 58   40/ 15/ 20 1020.9
NEW CANAL        0500   53 63   20/ 23/ 27 1021.7
SHELL BEACH      0500   53 62   10/ 24/ 27 1021.1

OFFSHORE STATIONS

STATION/POSITION TIME  TEMP    WIND        PRES    WAVE
                       AIR SEA DIR/SP/G            HT/PER
                 (UTC) (F)     (DEG/KT/KT) (MB)    (FT/S)
64 S DAUPHIN ISL 0535   57 68   30/ 21/ 25 1021.0

$$




USA.gov is the U.S. government's official web portal to all federal, state and local government web resources and services.